Regional Weather Roundup
Issued by NWS Northern Indiana

Home | Current Version | Previous Version | Text Only | Print | Product List | Glossary Off
Versions: 1 2 3 4 5 6 7 8 9 10 11 12 13 14 15 16 17 18 19 20 21 22 23 24 25 26 27 28 29 30 31 32 33 34 35 36 37 38 39 40 41 42 43 44 45 46 47 48 49 50

000
ASUS43 KIWX 051400
RWRIWX

KIWX WEATHER ROUNDUP
NATIONAL WEATHER SERVICE NORTHERN INDIANA
900 AM EST MON DEC 05 2016

NOTE: "FAIR" INDICATES FEW OR NO CLOUDS BELOW 12,000 FEET WITH NO
SIGNIFICANT WEATHER AND/OR OBSTRUCTIONS TO VISIBILITY.

* THESE STATIONS ARE NOT UNDER NWS QUALITY CONTROL. THEY ALSO MAY NOT
  REPORT WEATHER SUCH AS PRECIPITATION OR FOG.

INZ001>027-051500-
NORTHERN INDIANA

CITY           SKY/WX    TMP DP  RH WIND       PRES   REMARKS
GARY*          CLOUDY    34  32  93 SW5       30.04S FOG     WCI  30
SOUTH BEND     CLOUDY    31  30  96 SW8       30.04R WCI  23
GOSHEN         CLOUDY    33  28  81 SW8       30.05R WCI  26
ANGOLA*        CLOUDY    34  30  86 SW6       30.02R WCI  29
FORT WAYNE     CLOUDY    33  29  85 SW6       30.08R WCI  28

$$
INZ028>050-051500-
CENTRAL INDIANA

CITY           SKY/WX    TMP DP  RH WIND       PRES   REMARKS
LAFAYETTE      CLOUDY    33  32  96 SW3       30.07F
KOKOMO*        CLOUDY    33  30  88 SW5       30.08R WCI  29
MUNCIE*        CLOUDY    35  29  78 SW5       30.08R WCI  31
INDIANAPOLIS   CLOUDY    35  30  82 SW5       30.09R WCI  31

$$
MIZ043>046-050>051-056>058-064>065-071>073-077>080-051500-
SOUTHWEST LOWER MICHIGAN

CITY           SKY/WX    TMP DP  RH WIND       PRES   REMARKS
BATTLE CREEK   CLOUDY    34  33  96 SW8       30.00R WCI  27
BENTON HARBOR  CLOUDY    37  31  78 W8        30.02R
COLDWATER*     CLOUDY    34  32  92 SW7       30.01R WCI  28
HILLSDALE*     CLOUDY    32  30  93 SW6       30.00R WCI  26
HOLLAND        CLOUDY    38  32  79 W9        29.99R
GRAND RAPIDS   MOCLDY    35  32  88 SW9       29.98R WCI  28
KALAMAZOO      CLOUDY    35  31  85 SW6       30.01R WCI  30
STURGIS*       CLOUDY    33  31  91 SW6       30.02R WCI  28
THREE RIVERS*  CLOUDY    34  33  95 SW6       30.03R FOG     WCI  29

$$
OHZ001>008-015>018-024>025-051500-
NORTHWEST OHIO

CITY           SKY/WX    TMP DP  RH WIND       PRES   REMARKS
DEFIANCE       CLOUDY    35  28  75 W5        30.07R WCI  31
FINDLAY        CLOUDY    35  29  78 SW6       30.07R WCI  30
TOLEDO EXPRESS CLOUDY    35  33  92 SW6       30.05R WCI  30
TOLEDO METCALF CLOUDY    36  33  89 SW8       30.06R
LIMA           CLOUDY    33  31  92 SW7       30.07R WCI  27

$$
AND FOR LAKE MICHIGAN COASTAL AND OPEN LAKE BUOY OBSERVATIONS

STATION/POSITION TEMP    WIND        PRES    VSBY  WAVE
                 AIR SEA DIR/SP/G                  HT/PER
                 (F)     (DEG/KT/KT) (MB)    (MI)  (FT/S)
CALUMET HARBOR    32     230/  6/  9 1016.1F
BURNS HARBOR      34     210/  8/ 12 1017.6

$$
&&



USA.gov is the U.S. government's official web portal to all federal, state and local government web resources and services.